THOR ABLESTAR DEB, 5745

Orbit data source: Space-Track

THOR ABLESTAR DEB, 5745 is space debris in LEO originally from a launch on Thu, 29 Jun 1961 UTC launched from the Air Force Eastern Test Range (AFETR). Debris objects in space refer to the collection of defunct objects orbiting the Earth. Examples of debris include non-operational satellites, rocket bodies, and fragments generated from explosions, collisions, or faulty payload assembly.

Loading next visibility...
Identifier
5745, 1961-015JU
Orbit
LEO
Country
Flag of USUS
Related business
Manufacturer
Unknown
Mission
Spacecraft
Bus & Motor
Unknown
Mass
Unknown
Launch date (UTC)
1961-06-29 (65 years ago)
Launch vehicle
Unknown
Launch site
Air Force Eastern Test Range (AFETR)
Object type
Payload
Rocket body
Debris
Shape & HBR
Unknown
Radar Cross Section
Small (<0.1 m²)

Expand to show TLE details & history
Last TLE update: 9 hours ago

TLE from 9 hours ago
0 THOR ABLESTAR DEB
1  5745U 61015JU  26118.76308267  .00013668  00000-0  28030-2 0  9990
2  5745  67.0637 252.3793 0039623  67.8182 292.7132 14.60368920259526
Epoch: 2026-04-28T18:18Z
TLE epoch observation values (Epoch: 2026-04-28T18:18:50.342Z)
Latitude
0.00001°
Longitude
120.93581°
Altitude
683.425 km
Speed
7.521 km/s
True Right ascension
16h 49m 31s
True Declination
0° 00' 00"
Sunlit
Object was in full shadow at epoch
Visualization orbit readout
Latitude
Unknown
Longitude
Unknown
Altitude
Unknown
Speed
Unknown
Apparent Right ascension
Unknown
Apparent Declination
Unknown
Sunlit
N/A
Visualization observer readout
Local Sidereal Time
10:28:52
Azimuth
Unknown
Elevation
Unknown
Doppler factor
Unknown
Orbital elements
Apogee altitude
718.299 km
Perigee altitude
662.285 km
Semi-major axis
7,068.429 km
Eccentricity
0.00396
Inclination
67.0637°
RAAN
252.3793°
Arg. of periapsis
67.8182°
True anomaly
292.29357°
Mean anomaly
292.7132°
Eccentric anomaly
292.50346°
Mean motion
3.65224 °/min
Orbital period
98.57 mins
BSTAR
0.002803
Loading maneuver chart data...
Computing Atmospheric mass density...
Loading historical data...
Loading historical data...
Loading historical data...
Loading historical data...
Loading historical data...
Loading historical data...
Loading historical data...

Documentation

Showing up to 5 results
|